| time (UTC) | temp F | wind direction | speed knots | gust knots | rain 1hr in | rain 24hr in | rain mn in | humidity % | barometer mb |
| 20260507061028 | 49 | 75 | 0.9 | 3.5 | 0.00 | 0.00 | 0.00 | 87 | 1016.8 |
| 20260507060028 | 49 | 78 | 1.7 | 5.2 | 0.00 | 0.00 | 0.00 | 87 | 1016.7 |
| 20260507055048 | 49 | 72 | 3.5 | 7.8 | 0.00 | 0.00 | 0.00 | 88 | 1016.7 |
| 20260507054028 | 49 | 218 | 0.0 | 0.0 | 0.00 | 0.00 | 0.00 | 88 | 1016.6 |
| 20260507053029 | 49 | 51 | 1.7 | 4.3 | 0.00 | 0.00 | 0.00 | 88 | 1016.4 |
| 20260507052108 | 49 | 58 | 2.6 | 6.1 | 0.00 | 0.00 | 0.00 | 88 | 1016.5 |
| 20260507051029 | 49 | 89 | 0.9 | 4.3 | 0.00 | 0.00 | 0.00 | 88 | 1016.5 |
| 20260507050029 | 49 | 247 | 0.9 | 2.6 | 0.00 | 0.00 | 0.00 | 88 | 1016.5 |
| 20260507045029 | 49 | 63 | 0.0 | 0.9 | 0.00 | 0.00 | 0.00 | 88 | 1016.4 |
| 20260507044029 | 49 | 16 | 0.9 | 3.5 | 0.00 | 0.00 | 0.00 | 88 | 1016.4 |
| 20260507043029 | 49 | 355 | 0.0 | 2.6 | 0.00 | 0.00 | 0.00 | 88 | 1016.2 |
| 20260507042029 | 49 | 57 | 0.9 | 2.6 | 0.00 | 0.00 | 0.00 | 87 | 1016.2 |
| 20260507041029 | 49 | 22 | 1.7 | 2.6 | 0.00 | 0.00 | 0.00 | 87 | 1016.2 |
| 20260507040050 | 49 | 54 | 0.0 | 0.9 | 0.00 | 0.00 | 0.00 | 87 | 1016.1 |
| 20260507035030 | 49 | 59 | 2.6 | 5.2 | 0.00 | 0.00 | 0.00 | 87 | 1016.1 |
| 20260507034030 | 49 | 70 | 0.9 | 3.5 | 0.00 | 0.00 | 0.00 | 87 | 1016.1 |
| 20260507033030 | 49 | 34 | 1.7 | 2.6 | 0.00 | 0.00 | 0.00 | 87 | 1016.0 |
| 20260507032031 | 49 | 0.0 | 0.0 | 0.00 | 0.00 | 0.00 | 87 | 1016.0 | |
| 20260507031050 | 49 | 109 | 0.0 | 1.7 | 0.00 | 0.00 | 0.00 | 87 | 1016.0 |
| 20260507030030 | 49 | 144 | 0.9 | 1.7 | 0.00 | 0.00 | 0.00 | 87 | 1016.0 |
| 20260507025030 | 49 | 41 | 0.9 | 3.5 | 0.00 | 0.00 | 0.00 | 87 | 1016.0 |
| 20260507024016 | 49 | 98 | 0.9 | 1.7 | 0.00 | 0.00 | 0.00 | 87 | 1015.9 |
| 20260507023016 | 49 | 65 | 0.9 | 3.5 | 0.00 | 0.00 | 0.00 | 87 | 1015.9 |
| 20260507022031 | 49 | 17 | 0.9 | 3.5 | 0.00 | 0.00 | 0.00 | 87 | 1015.8 |
| 20260507021031 | 49 | 3 | 0.0 | 2.6 | 0.00 | 0.00 | 0.00 | 87 | 1015.8 |
| 20260507020051 | 49 | 0.0 | 0.0 | 0.00 | 0.00 | 0.00 | 86 | 1015.7 | |
| 20260507015031 | 49 | 26 | 0.9 | 2.6 | 0.00 | 0.00 | 0.00 | 86 | 1015.7 |
| 20260507014051 | 49 | 349 | 0.9 | 4.3 | 0.00 | 0.00 | 0.00 | 86 | 1015.7 |
| 20260507013036 | 49 | 0.0 | 0.0 | 0.00 | 0.00 | 0.00 | 86 | 1015.8 | |
| 20260507012017 | 50 | 60 | 0.0 | 0.9 | 0.00 | 0.00 | 0.00 | 85 | 1015.8 |
| 20260507011017 | 50 | 70 | 0.0 | 0.9 | 0.00 | 0.00 | 0.00 | 85 | 1015.8 |
| 20260507010017 | 50 | 38 | 0.0 | 1.7 | 0.00 | 0.00 | 0.00 | 85 | 1015.8 |
| 20260507005017 | 50 | 40 | 0.0 | 1.7 | 0.00 | 0.00 | 0.00 | 85 | 1015.7 |
| 20260507004017 | 50 | 75 | 0.9 | 3.5 | 0.00 | 0.00 | 0.00 | 84 | 1015.7 |
| 20260507003017 | 50 | 44 | 0.9 | 1.7 | 0.00 | 0.00 | 0.00 | 84 | 1015.8 |
| 20260507002017 | 50 | 7 | 0.0 | 0.0 | 0.00 | 0.00 | 0.00 | 83 | 1015.9 |
| 20260507001032 | 50 | 102 | 0.0 | 0.9 | 0.00 | 0.00 | 0.00 | 83 | 1015.9 |
| 20260507000018 | 50 | 4 | 0.0 | 0.9 | 0.00 | 0.00 | 0.00 | 83 | 1015.9 |
| 20260506235018 | 51 | 349 | 0.9 | 2.6 | 0.00 | 0.00 | 0.00 | 83 | 1015.9 |
| 20260506234038 | 51 | 87 | 0.0 | 0.0 | 0.00 | 0.00 | 0.00 | 82 | 1015.8 |
| 20260506233018 | 51 | 19 | 0.9 | 2.6 | 0.00 | 0.00 | 0.00 | 81 | 1015.8 |
| 20260506232019 | 51 | 340 | 0.0 | 0.9 | 0.00 | 0.00 | 0.00 | 81 | 1015.8 |
| 20260506231019 | 51 | 4 | 1.7 | 2.6 | 0.00 | 0.00 | 0.00 | 81 | 1015.8 |
| 20260506230018 | 51 | 16 | 0.9 | 1.7 | 0.00 | 0.00 | 0.00 | 80 | 1015.8 |
| 20260506225019 | 51 | 68 | 0.0 | 0.9 | 0.00 | 0.00 | 0.00 | 80 | 1015.7 |
| 20260506224019 | 51 | 14 | 0.9 | 1.7 | 0.00 | 0.00 | 0.00 | 80 | 1015.7 |
| 20260506223019 | 51 | 32 | 0.0 | 2.6 | 0.00 | 0.00 | 0.00 | 80 | 1015.7 |
| 20260506222019 | 52 | 61 | 0.9 | 1.7 | 0.00 | 0.00 | 0.00 | 80 | 1015.7 |
| 20260506221019 | 52 | 47 | 0.9 | 2.6 | 0.00 | 0.00 | 0.00 | 80 | 1015.7 |
| 20260506220019 | 52 | 37 | 0.9 | 2.6 | 0.00 | 0.00 | 0.00 | 79 | 1015.6 |
| 20260506215019 | 52 | 79 | 0.9 | 2.6 | 0.00 | 0.00 | 0.00 | 79 | 1015.6 |
| 20260506214040 | 52 | 48 | 0.9 | 2.6 | 0.00 | 0.00 | 0.00 | 79 | 1015.6 |
| 20260506213020 | 52 | 84 | 1.7 | 2.6 | 0.00 | 0.00 | 0.00 | 79 | 1015.6 |
| 20260506212020 | 52 | 61 | 0.9 | 3.5 | 0.00 | 0.00 | 0.00 | 79 | 1015.5 |
| 20260506211020 | 52 | 13 | 1.7 | 3.5 | 0.00 | 0.00 | 0.00 | 79 | 1015.5 |
| 20260506210101 | 52 | 52 | 0.0 | 1.7 | 0.00 | 0.00 | 0.00 | 78 | 1015.4 |
| 20260506205018 | 52 | 26 | 0.9 | 4.3 | 0.00 | 0.00 | 0.00 | 78 | 1015.3 |
| 20260506204018 | 52 | 75 | 0.9 | 2.6 | 0.00 | 0.00 | 0.00 | 78 | 1015.2 |
| 20260506203018 | 52 | 58 | 0.9 | 3.5 | 0.00 | 0.00 | 0.00 | 77 | 1015.2 |
| 20260506202018 | 53 | 70 | 0.9 | 3.5 | 0.00 | 0.00 | 0.00 | 77 | 1015.2 |
| 20260506201018 | 53 | 10 | 0.9 | 5.2 | 0.00 | 0.00 | 0.00 | 76 | 1015.0 |
| 20260506200018 | 53 | 58 | 1.7 | 4.3 | 0.00 | 0.00 | 0.00 | 76 | 1014.9 |
| 20260506195018 | 53 | 11 | 2.6 | 6.1 | 0.00 | 0.00 | 0.00 | 75 | 1014.9 |
| 20260506194039 | 53 | 52 | 0.9 | 4.3 | 0.00 | 0.00 | 0.00 | 74 | 1014.8 |
| 20260506193019 | 53 | 50 | 0.9 | 4.3 | 0.00 | 0.00 | 0.00 | 74 | 1014.6 |
| 20260506192019 | 53 | 34 | 1.7 | 5.2 | 0.00 | 0.00 | 0.00 | 74 | 1014.6 |
| 20260506191019 | 54 | 72 | 2.6 | 5.2 | 0.00 | 0.00 | 0.00 | 73 | 1014.6 |
| 20260506190018 | 54 | 90 | 0.9 | 3.5 | 0.00 | 0.00 | 0.00 | 72 | 1014.4 |
| 20260506185017 | 54 | 356 | 2.6 | 6.1 | 0.00 | 0.00 | 0.00 | 72 | 1014.3 |
| 20260506184019 | 54 | 342 | 3.5 | 9.6 | 0.00 | 0.00 | 0.00 | 70 | 1014.2 |
| 20260506183019 | 54 | 97 | 0.0 | 2.6 | 0.00 | 0.00 | 0.00 | 70 | 1014.0 |
| 20260506182019 | 54 | 110 | 0.9 | 2.6 | 0.00 | 0.00 | 0.00 | 69 | 1013.9 |
| 20260506181016 | 55 | 128 | 0.9 | 3.5 | 0.00 | 0.00 | 0.00 | 70 | 1013.9 |
| 20260506180017 | 55 | 97 | 0.9 | 2.6 | 0.00 | 0.00 | 0.00 | 69 | 1013.7 |
| 20260506175017 | 55 | 181 | 0.9 | 4.3 | 0.00 | 0.00 | 0.00 | 68 | 1013.7 |
| 20260506174020 | 55 | 138 | 0.9 | 6.1 | 0.00 | 0.00 | 0.00 | 67 | 1013.6 |
| 20260506173020 | 55 | 118 | 0.9 | 3.5 | 0.00 | 0.00 | 0.00 | 68 | 1013.6 |
| 20260506172037 | 55 | 127 | 2.6 | 7.0 | 0.00 | 0.00 | 0.00 | 69 | 1013.5 |
| 20260506171017 | 55 | 136 | 1.7 | 4.3 | 0.00 | 0.00 | 0.00 | 68 | 1013.6 |
| 20260506170018 | 55 | 147 | 1.7 | 5.2 | 0.00 | 0.00 | 0.00 | 67 | 1013.5 |
| 20260506165038 | 55 | 142 | 1.7 | 7.0 | 0.00 | 0.00 | 0.00 | 66 | 1013.5 |
| 20260506164018 | 55 | 181 | 2.6 | 7.0 | 0.00 | 0.00 | 0.00 | 66 | 1013.4 |
| 20260506163018 | 55 | 169 | 2.6 | 7.8 | 0.00 | 0.00 | 0.00 | 66 | 1013.5 |
| 20260506162018 | 55 | 85 | 0.9 | 4.3 | 0.00 | 0.00 | 0.00 | 65 | 1013.5 |
| 20260506161018 | 55 | 142 | 1.7 | 6.1 | 0.00 | 0.00 | 0.00 | 65 | 1013.5 |
| 20260506160018 | 56 | 170 | 2.6 | 7.8 | 0.00 | 0.00 | 0.00 | 64 | 1013.5 |
| 20260506155018 | 56 | 183 | 0.9 | 6.1 | 0.00 | 0.00 | 0.00 | 64 | 1013.5 |
| 20260506154019 | 57 | 144 | 1.7 | 7.0 | 0.00 | 0.00 | 0.00 | 63 | 1013.5 |
| 20260506153039 | 58 | 162 | 2.6 | 7.8 | 0.00 | 0.00 | 0.00 | 57 | 1013.5 |
| 20260506152019 | 58 | 144 | 2.6 | 7.8 | 0.00 | 0.00 | 0.00 | 54 | 1013.5 |
| 20260506151039 | 58 | 38 | 0.9 | 3.5 | 0.00 | 0.00 | 0.00 | 50 | 1013.2 |
| 20260506150057 | 59 | 350 | 3.5 | 8.7 | 0.00 | 0.00 | 0.00 | 49 | 1013.2 |
| 20260506145039 | 59 | 349 | 0.0 | 3.5 | 0.00 | 0.00 | 0.00 | 49 | 1013.2 |
| 20260506144020 | 59 | 346 | 3.5 | 12.2 | 0.00 | 0.00 | 0.00 | 49 | 1013.2 |
| 20260506143020 | 61 | 318 | 2.6 | 13.0 | 0.00 | 0.00 | 0.00 | 47 | 1013.2 |
| 20260506142017 | 61 | 320 | 2.6 | 9.6 | 0.00 | 0.00 | 0.00 | 44 | 1013.0 |
| 20260506141037 | 61 | 309 | 2.6 | 9.6 | 0.00 | 0.00 | 0.00 | 42 | 1013.0 |
| 20260506140017 | 59 | 330 | 3.5 | 7.8 | 0.00 | 0.00 | 0.00 | 44 | 1013.1 |
| 20260506135017 | 59 | 336 | 7.0 | 13.0 | 0.00 | 0.00 | 0.00 | 45 | 1013.1 |
| 20260506134020 | 59 | 343 | 8.7 | 19.1 | 0.00 | 0.00 | 0.00 | 46 | 1013.1 |
| 20260506133017 | 59 | 342 | 7.8 | 18.2 | 0.00 | 0.00 | 0.00 | 47 | 1013.1 |
| 20260506132017 | 59 | 326 | 5.2 | 12.2 | 0.00 | 0.00 | 0.00 | 49 | 1013.2 |
| 20260506131038 | 58 | 330 | 4.3 | 12.2 | 0.00 | 0.00 | 0.00 | 49 | 1013.2 |
| 20260506130018 | 59 | 340 | 5.2 | 13.0 | 0.00 | 0.00 | 0.00 | 48 | 1013.2 |
| 20260506125018 | 59 | 355 | 8.7 | 15.6 | 0.00 | 0.00 | 0.00 | 47 | 1013.2 |
| 20260506124018 | 58 | 340 | 5.2 | 17.4 | 0.00 | 0.00 | 0.00 | 48 | 1013.2 |
| 20260506123038 | 58 | 322 | 5.2 | 13.0 | 0.00 | 0.00 | 0.00 | 50 | 1013.1 |
| 20260506122038 | 58 | 352 | 7.8 | 15.6 | 0.00 | 0.00 | 0.00 | 48 | 1013.1 |
| 20260506121018 | 58 | 355 | 6.1 | 13.0 | 0.00 | 0.00 | 0.00 | 51 | 1013.2 |
| 20260506120018 | 59 | 342 | 10.4 | 18.2 | 0.00 | 0.00 | 0.00 | 51 | 1013.2 |
| 20260506115016 | 59 | 346 | 10.4 | 20.9 | 0.00 | 0.00 | 0.00 | 48 | 1013.2 |
| 20260506114019 | 58 | 331 | 7.8 | 20.9 | 0.00 | 0.00 | 0.00 | 52 | 1013.2 |
| 20260506113019 | 57 | 347 | 8.7 | 16.5 | 0.00 | 0.00 | 0.00 | 53 | 1013.2 |
| 20260506112019 | 57 | 343 | 8.7 | 17.4 | 0.00 | 0.00 | 0.00 | 53 | 1013.3 |
| 20260506111019 | 57 | 358 | 4.3 | 10.4 | 0.00 | 0.00 | 0.00 | 54 | 1013.3 |
| 20260506110016 | 57 | 347 | 9.6 | 16.5 | 0.00 | 0.00 | 0.00 | 55 | 1013.3 |
| 20260506105017 | 57 | 343 | 6.1 | 14.8 | 0.00 | 0.00 | 0.00 | 55 | 1013.3 |
| 20260506104020 | 56 | 354 | 7.8 | 13.9 | 0.00 | 0.00 | 0.00 | 56 | 1013.3 |
| 20260506103100 | 57 | 346 | 7.0 | 12.2 | 0.00 | 0.00 | 0.00 | 56 | 1013.4 |
| 20260506102017 | 56 | 346 | 6.1 | 14.8 | 0.00 | 0.00 | 0.00 | 59 | 1013.3 |
| 20260506101017 | 55 | 349 | 7.0 | 11.3 | 0.00 | 0.00 | 0.00 | 60 | 1013.4 |
| 20260506100017 | 54 | 348 | 7.0 | 12.2 | 0.00 | 0.00 | 0.00 | 63 | 1013.4 |
| 20260506095017 | 54 | 357 | 8.7 | 13.9 | 0.00 | 0.00 | 0.00 | 62 | 1013.4 |
| 20260506094020 | 54 | 355 | 6.1 | 12.2 | 0.00 | 0.00 | 0.00 | 62 | 1013.4 |
| 20260506093017 | 54 | 353 | 7.0 | 12.2 | 0.00 | 0.00 | 0.00 | 62 | 1013.3 |
| 20260506092018 | 54 | 358 | 7.0 | 13.0 | 0.00 | 0.00 | 0.00 | 63 | 1013.4 |
| 20260506091018 | 53 | 350 | 9.6 | 15.6 | 0.00 | 0.00 | 0.00 | 67 | 1013.4 |
| 20260506090018 | 53 | 1 | 7.0 | 13.0 | 0.00 | 0.00 | 0.00 | 68 | 1013.3 |
| 20260506085038 | 53 | 360 | 6.1 | 13.9 | 0.00 | 0.00 | 0.00 | 70 | 1013.3 |
| 20260506084018 | 52 | 355 | 7.8 | 13.0 | 0.00 | 0.00 | 0.00 | 71 | 1013.3 |
| 20260506083018 | 52 | 2 | 7.8 | 13.9 | 0.00 | 0.00 | 0.00 | 72 | 1013.2 |
| 20260506082018 | 52 | 346 | 7.0 | 13.9 | 0.00 | 0.00 | 0.00 | 74 | 1013.2 |
| 20260506081038 | 51 | 4 | 5.2 | 8.7 | 0.00 | 0.00 | 0.00 | 74 | 1013.1 |
| 20260506073022 | 50 | 342 | 7.0 | 11.3 | 0.00 | 0.00 | 0.00 | 79 | 1013.1 |
| 20260506072022 | 50 | 351 | 8.7 | 13.0 | 0.00 | 0.00 | 0.00 | 80 | 1013.1 |
| 20260506071022 | 49 | 353 | 5.2 | 8.7 | 0.00 | 0.00 | 0.00 | 82 | 1013.1 |
| 20260506070112 | 48 | 360 | 3.5 | 6.1 | 0.00 | 0.00 | 0.00 | 82 | 1013.1 |
| 20260506062017 | 49 | 355 | 5.2 | 9.6 | 0.00 | 0.00 | 0.00 | 84 | 1013.0 |